RH
59 72 70 66 63 49 47 54 50 41 51 52 55 52 44 42 49 53 48 48 53 53 58 57 56 57 58 57 55 56 58 56 58 73 84 93 94 93 89 86 81 80 84 83
56 74 63 59 54 48 52 60 48 46 54 56 60 55 47 42 43 50 45 52 58 60 59 57 59 61 60 60 62 61 60 61 55 71 78 90 94 94 93 88 83 79 82 85
57 62 55 56 51 48 61 64 66 69 66 57 64 35 46 44 40 39 43 52 61 56 54 56 58 61 67 70 69 66 66 66 58 61 73 81 89 93 91 89 88 84 82 86
62 57 58 62 57 54 54 64 64 67 74 50 65 39 44 50 45 42 51 51 63 64 54 53 56 57 58 60 68 70 69 68 66 62 68 75 85 91 94 94 93 89 84 89
62 64 65 64 63 58 59 63 69 72 89 88 76 86 50 58 46 47 66 61 66 66 63 55 50 49 53 58 67 70 72 74 76 66 64 70 75 88 94 95 92 91 88 88
66 61 66 65 58 59 63 68 76 88 92 79 74 76 63 70 60 56 62 64 56 61 53 55 56 55 60 64 70 75 77 77 79 80 71 65 66 71 84 92 95 95 94 93
73 74 69 63 71 70 64 74 68 60 82 65 84 80 63 54 56 53 55 60 58 53 45 44 44 46 47 50 57 68 74 77 80 84 82 71 66 68 76 85 94 94 95 95
77 55 76 69 72 77 77 66 71 30 65 65 65 76 60 53 54 52 53 51 44 42 40 43 46 46 45 42 46 51 57 64 69 78 81 80 70 71 72 80 90 95 96 95
66 65 68 66 69 67 78 86 69 61 78 80 74 55 51 55 55 51 42 40 39 42 40 42 42 45 45 44 46 50 54 57 62 68 78 80 76 70 68 72 85 91 93 88
57 44 66 73 68 74 78 67 74 86 40 63 64 58 76 70 58 42 42 38 40 43 41 38 39 43 45 48 50 51 53 54 57 62 69 73 78 73 68 68 74 83 88 91
57 44 52 66 78 71 77 74 76 70 71 52 53 63 65 69 50 42 40 41 46 47 44 40 39 46 48 49 50 52 53 53 52 52 55 65 71 75 70 67 67 73 80 85
67 58 77 58 67 64 63 58 60 65 47 65 60 64 38 60 50 38 41 43 55 54 48 47 49 50 50 52 53 54 53 53 52 53 56 56 64 69 71 69 65 65 72 76
58 54 66 49 62 62 60 58 65 65 76 71 66 41 40 64 62 41 43 49 51 52 51 53 55 55 55 56 56 56 56 55 54 57 60 58 58 60 62 62 61 60 65 68
56 60 40 42 44 56 64 60 64 67 88 72 64 45 41 52 42 40 42 59 66 59 52 58 58 59 60 59 59 59 57 57 58 62 64 65 63 63 61 64 62 60 58 62
61 61 74 65 57 59 60 55 56 76 60 54 46 48 35 43 44 39 39 52 54 55 57 57 59 62 62 62 59 60 61 61 61 64 70 69 67 67 68 68 67 65 63 57
72 64 77 72 62 67 71 62 58 53 51 60 49 47 37 38 45 42 46 53 58 61 58 57 58 60 60 64 61 61 64 65 66 68 68 66 65 67 72 73 72 72 70 66
77 78 82 84 76 72 70 61 64 65 59 50 62 48 43 47 43 46 51 60 64 63 60 61 62 65 67 65 63 64 64 67 72 76 73 72 71 72 72 75 80 78 75 73
79 78 81 90 78 83 52 44 43 53 51 49 48 44 42 46 51 55 58 60 66 62 61 60 62 66 65 67 68 69 69 72 75 76 77 77 76 75 74 77 81 83 82 78
61 74 83 88 91 68 48 43 44 43 40 43 43 44 53 58 61 56 59 61 65 69 62 64 68 68 69 68 68 72 70 75 76 73 74 72 74 76 76 78 78 80 84 77
65 65 71 90 91 83 53 41 38 41 48 50 50 54 54 62 66 60 59 66 62 62 63 66 67 67 69 65 73 76 73 77 74 70 70 72 76 79 79 80 78 80 86 81
86 85 76 82 94 82 56 45 44 63 58 54 54 52 55 64 61 59 66 64 64 64 65 69 68 66 66 68 73 71 73 72 67 72 72 72 76 81 80 83 84 82 80 79
80 90 94 90 96 93 56 48 50 48 56 49 51 59 60 62 65 65 64 66 66 66 65 60 60 56 59 62 67 64 69 63 68 75 77 73 73 76 71 87 84 89 91 87
71 61 73 71 71 55 51 54 48 54 55 58 63 57 62 65 67 68 70 71 69 68 61 60 62 61 61 60 60 60 57 59 64 72 67 65 69 80 82 91 89 91 89 93
61 57 65 62 58 60 50 52 57 57 57 53 56 59 61 65 69 71 72 73 73 60 57 55 59 62 62 57 52 58 58 59 66 72 66 66 73 71 74 84 93 95 94 91
70 75 79 77 67 60 62 52 53 61 60 62 65 68 68 72 70 72 75 68 62 57 56 58 63 67 65 59 55 56 56 60 67 67 68 69 69 77 79 81 86 88 88 91
64 58 67 68 57 61 57 62 60 57 61 64 66 66 68 74 74 69 65 64 66 68 74 77 80 76 64 56 55 56 56 61 70 66 59 66 72 78 78 81 79 70 75 77
Wind_Speed
5 9 3 3 1 3 4 2 2 3 2 4 3 11 16 12 4 6 7 4 5 6 4 4 5 5 5 2 3 4 3 4 1 1 2 2 3 3 3 3 4 5 4 5
8 4 2 1 2 3 3 1 3 5 3 4 6 16 8 5 4 2 5 7 7 5 4 4 4 4 3 4 6 6 6 5 3 2 3 3 2 3 4 3 4 5 5 4
7 3 1 1 4 3 3 1 0 1 9 2 7 7 5 2 4 7 6 4 3 6 4 2 3 5 5 7 8 6 7 6 5 5 1 2 2 3 2 2 3 4 5 4
5 2 2 2 3 1 1 3 3 3 5 3 3 6 5 3 3 5 6 4 4 2 1 1 4 5 6 8 6 7 7 7 6 4 3 3 2 2 2 2 3 4 4 4
2 2 2 2 2 2 1 3 0 1 2 4 1 4 8 3 2 1 3 4 3 2 2 3 5 5 6 6 6 6 6 7 6 5 5 4 4 4 3 3 6 5 5 4
2 1 2 1 2 3 4 4 5 4 3 3 3 5 7 2 2 3 1 2 1 3 6 6 6 7 6 7 6 6 6 8 6 5 6 7 7 6 4 4 4 4 4 4
5 3 2 3 3 3 5 6 4 7 5 6 2 3 10 5 2 6 6 3 3 4 5 5 7 8 8 8 8 6 5 8 7 7 7 7 8 7 8 7 4 5 3 3
4 7 2 1 1 5 2 6 7 5 1 6 3 6 7 3 3 5 5 5 2 4 2 4 6 6 6 7 7 7 7 8 7 6 8 7 7 5 5 6 5 4 4 5
4 2 0 2 1 3 1 1 2 6 3 3 3 7 6 2 3 4 5 3 4 2 2 4 5 5 6 7 8 8 8 8 8 7 6 7 7 7 7 7 6 5 5 5
2 1 1 0 2 2 1 2 2 3 1 4 6 6 6 5 6 5 5 5 2 1 4 4 5 6 6 6 6 8 8 7 7 7 6 6 8 7 7 6 7 7 6 6
2 4 4 4 3 5 1 2 1 3 4 4 3 8 6 9 8 8 8 5 1 3 4 4 5 5 6 6 7 7 8 8 8 8 7 7 8 7 6 6 7 7 6 7
1 4 3 6 2 3 4 5 5 6 3 2 4 10 3 8 8 5 6 5 0 2 3 3 4 7 8 8 7 7 7 7 8 8 7 8 7 7 7 7 8 7 8 7
4 0 3 7 5 3 4 5 4 4 3 7 6 8 0 4 5 5 9 5 1 4 5 5 7 7 7 7 7 7 8 8 8 8 8 8 8 7 7 8 7 7 7 8
3 3 6 8 5 3 4 4 6 6 4 4 8 6 5 7 8 6 6 3 2 3 3 4 6 7 7 7 7 7 8 7 8 7 8 8 8 8 8 7 7 7 7 7
4 4 4 6 9 5 8 9 9 10 10 8 2 12 7 10 9 7 7 1 3 4 5 6 6 6 6 7 7 7 7 8 8 9 7 8 8 7 7 7 7 7 7 8
1 2 1 6 5 5 8 15 15 17 16 14 16 28 10 8 5 6 6 2 2 2 5 6 7 7 7 8 9 7 7 8 8 8 9 9 9 9 8 8 8 8 8 8
5 4 2 6 3 7 9 9 12 6 6 12 11 12 5 4 8 8 6 2 2 4 6 7 7 6 6 7 7 9 9 8 7 7 7 8 9 10 10 8 7 8 8 7
6 4 3 4 4 3 6 2 6 12 6 12 6 4 5 5 4 5 3 5 2 5 5 7 6 6 6 5 7 7 7 7 7 7 7 7 8 10 10 10 9 8 6 7
4 4 2 2 3 8 8 2 4 5 6 4 11 4 3 3 3 3 6 5 5 3 4 5 4 3 5 7 7 7 8 7 7 9 9 9 8 10 10 10 10 9 7 8
3 2 4 0 3 6 3 1 1 1 6 3 4 5 5 4 3 3 7 2 5 5 4 4 4 2 5 6 6 6 7 7 8 9 10 10 9 8 10 9 10 7 6 8
3 1 9 6 5 10 8 5 1 2 5 2 3 4 5 5 5 2 1 4 4 4 4 3 3 3 5 6 5 6 6 7 7 8 9 9 7 8 7 7 5 7 9 8
8 8 5 4 4 11 4 2 5 5 1 3 5 4 4 5 3 4 6 6 7 7 5 4 4 6 5 5 5 7 7 7 7 8 9 10 10 8 8 8 9 7 6 8
3 7 6 12 9 3 4 0 2 3 1 4 4 6 6 5 5 4 5 6 7 8 5 3 4 6 7 6 5 7 8 7 8 7 8 8 10 8 7 7 9 9 6 5
4 1 4 1 3 4 4 3 2 3 5 8 7 8 8 6 4 6 6 6 5 4 5 4 6 7 8 5 6 7 8 7 7 8 8 7 7 11 8 5 5 5 6 7
4 4 4 6 8 7 2 3 4 4 6 7 5 3 4 2 6 4 5 6 6 6 6 5 6 7 10 7 7 6 7 6 7 7 7 8 6 7 9 7 6 6 7 7
5 16 10 13 9 10 14 8 8 12 10 7 2 3 4 2 5 4 6 6 5 7 6 6 7 7 10 7 9 7 7 7 7 8 7 6 6 6 6 7 10 12 15 18
Wind_Direction
18 67 110 150 88 127 112 107 278 272 68 327 238 283 299 305 318 292 257 253 120 118 134 144 161 177 191 219 255 258 255 266 245 337 321 302 288 297 297 317 321 327 329 339
27 83 206 304 41 87 88 89 285 286 13 0 356 306 292 331 330 290 144 128 142 126 167 192 201 219 250 269 263 263 257 261 234 209 226 226 258 274 262 297 310 317 324 342
116 169 279 74 50 93 47 143 58 244 330 338 332 296 331 302 40 54 52 123 127 165 189 229 254 261 276 276 269 268 265 252 237 229 256 299 309 302 317 325 311 319 317 342
84 306 54 78 92 122 64 79 59 360 40 262 60 273 298 317 67 67 20 58 78 74 140 252 259 279 265 265 269 264 258 245 248 237 230 235 231 283 258 282 281 302 312 334
225 97 82 91 72 41 95 51 328 164 94 44 251 75 264 333 122 16 82 90 76 83 71 350 316 292 295 305 285 282 279 272 264 239 234 242 260 241 265 281 294 301 296 315
97 327 50 74 54 58 67 70 32 46 91 31 258 127 284 211 205 147 148 109 103 55 25 356 329 334 319 321 308 295 286 277 274 254 250 242 251 267 278 271 279 283 284 282
10 8 4 49 52 35 70 63 330 352 11 214 285 38 241 280 254 164 148 107 56 47 31 356 353 349 339 336 330 316 300 292 287 268 262 249 248 250 252 257 253 273 273 267
131 322 183 167 202 183 162 148 155 217 253 271 311 243 259 266 93 103 119 150 106 75 26 354 347 338 333 328 329 334 331 311 311 295 276 262 249 239 245 247 247 249 247 251
154 275 292 78 34 110 149 31 168 101 333 31 239 279 317 107 96 121 142 158 131 95 344 342 335 348 336 340 341 345 336 321 310 301 293 284 274 258 250 247 242 245 252 253
194 93 189 116 78 21 117 169 55 357 118 288 294 281 235 207 184 178 168 184 129 357 336 324 341 345 341 344 330 339 339 319 307 310 299 281 268 255 254 257 252 245 251 250
115 97 309 41 194 189 82 255 89 121 144 181 296 269 218 194 188 186 195 179 93 8 335 330 345 337 332 341 346 334 335 332 330 324 313 308 299 286 268 256 258 248 250 241
32 137 223 223 244 214 195 193 150 119 218 216 156 272 269 188 180 179 177 165 242 325 334 3 357 347 350 336 332 329 331 330 317 309 309 309 307 307 293 273 264 258 254 252
174 267 0 344 350 338 230 209 168 108 75 214 150 261 151 179 207 245 170 191 283 332 358 6 356 339 329 329 332 329 322 318 321 324 322 320 318 314 300 287 281 271 260 256
108 168 185 193 208 161 222 222 197 154 150 206 225 258 226 218 191 186 184 183 293 332 353 336 331 321 312 313 312 314 319 320 323 324 320 319 319 314 313 302 298 292 282 271
134 219 188 252 239 239 237 232 209 199 206 203 245 235 211 211 203 209 200 171 333 353 352 326 309 307 318 324 329 327 326 328 323 325 322 315 311 313 315 313 305 294 286 278
173 264 60 287 271 229 258 246 233 232 235 250 256 272 245 219 198 176 180 194 309 337 308 304 319 328 325 320 317 318 312 310 320 323 323 323 328 329 319 314 315 313 300 287
166 162 101 265 342 319 286 240 194 192 209 213 214 238 213 154 172 190 175 178 137 315 309 305 314 323 316 311 315 326 320 315 316 313 315 320 322 322 322 315 306 306 305 296
157 151 160 269 349 261 252 263 180 203 212 217 255 221 201 187 180 149 166 158 262 287 306 320 305 311 315 313 319 315 316 318 319 316 311 311 318 322 321 319 314 306 300 300
180 144 245 239 224 294 299 115 145 179 287 240 231 189 166 104 101 243 178 179 206 241 266 266 269 269 310 325 320 325 326 321 322 322 322 321 321 318 321 320 319 309 305 311
113 110 157 119 241 247 267 196 129 113 281 7 117 131 155 157 298 244 200 288 303 268 264 263 290 313 331 316 324 328 316 320 317 319 315 310 305 303 308 304 312 309 296 292
143 170 212 219 257 280 255 236 185 115 256 218 164 199 202 203 213 225 295 271 231 236 279 266 297 296 289 302 324 317 310 307 295 304 306 308 300 298 293 299 297 303 315 310
170 157 199 153 219 274 187 66 182 225 329 320 305 275 263 238 227 239 267 284 301 299 284 267 296 305 296 297 317 308 303 285 295 302 306 310 308 301 305 301 308 306 304 312
235 199 187 188 214 264 224 134 246 131 280 282 252 259 220 215 243 288 283 294 285 280 263 268 252 286 286 269 259 285 283 295 303 303 303 301 304 300 294 298 302 309 306 291
273 187 230 114 285 272 249 278 13 5 295 274 238 218 214 224 247 268 281 289 287 267 261 255 280 284 286 275 244 233 274 285 288 289 294 294 298 307 304 285 269 273 287 295
229 352 288 275 297 321 223 255 285 288 291 286 288 249 258 302 286 269 289 281 264 261 269 262 268 271 272 277 280 268 271 274 279 276 274 276 276 278 289 278 275 281 266 263
219 263 264 270 277 292 293 298 316 310 291 266 298 1 313 262 280 286 276 267 262 269 269 270 272 265 275 270 276 270 259 258 264 280 288 275 281 277 286 294 303 291 288 291